[[{"header":{"parameterUnit":"m.s-1","parameterCategory":1,"la1":30.2991,"la2":30.254,"lo1":-89.0895,"lo2":-89.0444,"dy":0.0017,"dx":0.0017,"nx":28,"ny":28,"refTime":"2023-05-26T21:00:00:Z","depth":0,"parameterNumber":2,"parameterNumberName":"U-component_of_WINDS"},"data":[0,0,0,0,0,0,0,0,0,0,0,0,0,0,0,0,0,0,0,0,0,0,0,0,0,0,0,0,0,0,0,0,0,0,0,0,0,0,0,0,0,0,0,0,0,0,0,0,0,0,0,0,0,0,0,0,0,0,2.5211,2.5211,0,2.5216,2.5216,2.5216,2.5209,2.5209,2.5209,2.5209,2.5213,2.5213,2.5213,0,0,0,0,0,0,0,0,0,0,0,0,0,2.5195,2.5195,2.5211,2.5211,2.5212,2.5216,2.5216,2.5216,2.5209,2.5209,2.5209,2.5209,2.5213,2.5213,2.5213,0,0,0,0,0,0,0,0,0,0,0,0,0,2.5201,2.5196,2.5211,2.5209,2.5208,2.5216,2.5216,2.5216,2.521,2.5209,2.5209,2.5208,2.5213,2.5213,2.5214,2.5224,0,0,2.5215,2.5215,0,0,0,0,0,0,0,0,2.5201,2.5202,2.5209,2.5209,2.5209,2.5212,2.5212,2.5219,2.521,2.5209,2.5209,2.5208,2.5213,2.5213,2.5215,2.5224,2.5224,2.5215,2.5215,2.5216,2.5216,0,0,0,0,0,0,0,2.5201,2.5202,2.5213,2.5209,2.5209,2.5207,2.5207,2.5213,2.5213,2.5209,2.5209,2.5209,2.5213,2.5214,2.5215,2.5224,2.5215,2.5216,2.5216,2.5216,2.5241,2.5241,0,0,0,0,0,0,2.5201,2.5201,2.5213,2.5213,2.5204,2.5207,2.5208,2.5211,2.5213,2.5213,2.521,2.5209,2.5214,2.5214,2.5215,2.5226,2.5216,2.5216,2.5216,2.5241,2.5241,2.5241,0,0,0,0,0,0,2.52,2.5202,2.5213,2.5207,2.5208,2.5208,2.5212,2.5211,2.5213,2.5213,2.5213,2.5212,2.5213,2.5214,2.5221,2.5226,2.5216,2.5217,2.524,2.5241,2.5241,2.5249,0,0,0,0,0,0,2.52,2.5202,2.5206,2.5207,2.5209,2.522,2.5212,2.5212,2.5214,2.5213,2.5215,2.5215,2.5213,2.5221,2.5222,2.5227,2.5217,2.524,2.524,2.5241,2.5249,2.525,2.5251,0,0,0,0,0,2.5199,2.5208,2.5206,2.5207,2.5214,2.522,2.5221,2.5219,2.5215,2.5219,2.5218,2.5215,2.5226,2.5222,2.5223,2.5228,2.5239,2.524,2.5241,2.5248,2.525,2.5251,0,0,0,0,0,0,2.5207,2.5208,2.5206,2.5216,2.5218,2.5219,2.5224,2.5221,2.5224,2.5223,2.5221,2.5221,2.5229,2.5229,2.5224,2.5237,2.5232,2.5233,2.5237,2.5238,2.524,2.5239,2.5218,0,0,0,0,0,2.521,2.5215,2.5215,2.5224,2.5225,2.5224,2.5227,2.5225,2.5227,2.5228,2.5228,2.523,2.5234,2.5236,2.524,2.5249,2.5249,2.5253,2.5254,2.5256,2.5256,2.526,2.5262,2.5244,2.5244,2.5244,0,0,2.5215,2.5217,2.522,2.5225,2.5227,2.5231,2.5225,2.523,2.5234,2.5229,2.5235,2.5236,2.5237,2.5245,2.5249,2.5246,2.5261,2.5257,2.5258,2.5258,2.5261,2.5263,2.5264,2.5245,2.5245,2.5244,0,0,2.5228,2.523,2.5236,2.5238,2.524,2.524,2.5241,2.5243,2.5243,2.525,2.5246,2.525,2.5256,2.5257,2.5259,2.5272,2.5268,2.5273,2.528,2.5284,2.5285,2.5286,2.529,2.5291,2.5274,2.5274,2.5274,0,2.5234,2.5242,2.524,2.5246,2.5248,2.5244,2.525,2.5252,2.5255,2.5256,2.5253,2.5261,2.5262,2.527,2.5273,2.5275,2.5276,2.5272,2.5285,2.5286,2.5287,2.5291,2.5292,2.5274,2.5274,2.5274,2.5274,0,2.5249,2.5254,2.5259,2.5263,2.5265,2.5271,2.527,2.5273,2.5271,2.5271,2.5277,2.5278,2.5282,2.5284,2.5282,2.5291,2.5289,2.5286,2.528,2.529,2.5293,2.5294,2.5275,2.5275,2.5275,2.5275,0,0,2.5266,2.5269,2.527,2.5271,2.5274,2.5277,2.5283,2.5286,2.5288,2.5291,2.5295,2.53,2.5297,2.5299,2.5297,2.5301,2.531,2.5297,2.5297,2.5299,2.5319,2.5321,2.5322,2.5308,2.5308,2.5308,2.5318,0,2.5278,2.5288,2.5286,2.5295,2.5299,2.5296,2.53,2.5302,2.5302,2.5305,2.5305,2.5308,2.5304,2.5305,2.5308,2.5308,2.5314,2.5307,2.5311,2.5311,2.531,2.5324,2.5326,2.5336,2.532,2.532,2.532,0,2.5293,2.5296,2.5305,2.5306,2.5308,2.5312,2.5315,2.5318,2.532,2.5319,2.5321,2.5319,2.5324,2.5318,2.5325,2.532,2.5322,2.5322,2.5322,2.5322,2.5316,2.5323,2.5339,2.534,2.5322,2.5322,2.5322,0,2.5303,2.5309,2.5316,2.5317,2.5318,2.5321,2.5322,2.5323,2.5325,2.5328,2.5329,2.5332,2.5333,2.5335,2.5333,2.533,2.534,2.5334,2.5339,2.5339,2.534,2.534,2.5355,2.5343,2.5343,2.5343,2.5343,0,2.5316,2.5321,2.532,2.5324,2.533,2.5328,2.5334,2.5334,2.5336,2.5339,2.5336,2.5339,2.5337,2.534,2.5339,2.5344,2.5345,2.5344,2.5343,2.5344,2.5344,2.5344,2.5343,2.5343,2.5343,2.5343,2.5343,0,2.5328,2.5327,2.5334,2.5335,2.5335,2.5339,2.534,2.5343,2.5343,2.5347,2.5348,2.5347,2.535,2.5349,2.5353,2.5352,2.5358,2.5357,2.5357,2.5357,2.5361,2.536,2.5376,2.5378,2.5365,2.5365,2.5365,0,2.5335,2.534,2.5341,2.5343,2.5344,2.5348,2.535,2.5348,2.535,2.5352,2.5355,2.5358,2.536,2.5365,2.5365,2.5367,2.5366,2.5371,2.5366,2.5366,2.5365,2.5364,2.5364,2.5372,2.5372,2.5372,2.5373,0,2.5349,2.5348,2.5351,2.5354,2.5356,2.5359,2.536,2.5362,2.5361,2.5363,2.5366,2.5368,2.5372,2.5374,2.5377,2.5377,2.5374,2.5374,2.5375,2.5375,2.5375,2.5374,2.5359,2.5374,2.5374,2.5373,2.5373,2.5373,2.5358,2.5361,2.5363,2.5366,2.5367,2.5369,2.5372,2.5372,2.5375,2.5377,2.5376,2.538,2.5381,2.5384,2.5384,2.5387,2.5385,2.5386,2.5387,2.5387,2.5387,2.5375,2.5387,2.5387,2.5387,2.5387,2.5387,0,2.537,2.5371,2.5374,2.5377,2.5379,2.5377,2.5379,2.5381,2.5384,2.5385,2.5388,2.5391,2.5394,2.5394,2.5396,2.5398,2.5397,2.5399,2.5398,2.5398,2.5389,2.5388,2.54,2.54,2.54,2.54,2.54,2.54,2.5377,2.5382,2.5382,2.5387,2.5388,2.5392,2.5393,2.5394,2.5395,2.5399,2.5401,2.5401,2.5402,2.5404,2.5406,2.5406,2.5407,2.5409,2.5408,2.54,2.5399,2.5398,2.5396,2.5409,2.5409,2.5417,2.5417,2.5417]},{"header":{"parameterUnit":"m.s-1","parameterCategory":1,"la1":30.2991,"la2":30.254,"lo1":-89.0895,"lo2":-89.0444,"dy":0.0017,"dx":0.0017,"nx":28,"ny":28,"refTime":"2023-05-26T21:00:00:Z","depth":0,"parameterNumber":3,"parameterNumberName":"V-component_of_WINDS"},"data":[0,0,0,0,0,0,0,0,0,0,0,0,0,0,0,0,0,0,0,0,0,0,0,0,0,0,0,0,0,0,0,0,0,0,0,0,0,0,0,0,0,0,0,0,0,0,0,0,0,0,0,0,0,0,0,0,0,0,0.935,0.935,0,0.9353,0.9353,0.9353,0.9335,0.9334,0.9334,0.9333,0.9335,0.9336,0.9336,0,0,0,0,0,0,0,0,0,0,0,0,0,0.9326,0.9326,0.935,0.935,0.935,0.9353,0.9353,0.9353,0.9335,0.9334,0.9333,0.9333,0.9335,0.9335,0.9336,0,0,0,0,0,0,0,0,0,0,0,0,0,0.9333,0.9327,0.935,0.9341,0.934,0.9353,0.9353,0.9353,0.9335,0.9334,0.9333,0.9333,0.9335,0.9335,0.9336,0.9356,0,0,0.9339,0.9339,0,0,0,0,0,0,0,0,0.9333,0.9334,0.9342,0.9342,0.9341,0.9343,0.9345,0.9354,0.9335,0.9337,0.9333,0.9332,0.9338,0.9339,0.9341,0.9357,0.9357,0.9339,0.9339,0.9339,0.934,0,0,0,0,0,0,0,0.9332,0.9334,0.9351,0.9343,0.9342,0.9336,0.9337,0.9347,0.9342,0.9337,0.9335,0.9336,0.9338,0.934,0.9341,0.9357,0.9339,0.9339,0.934,0.934,0.9387,0.9388,0,0,0,0,0,0,0.9333,0.9334,0.9351,0.9351,0.9335,0.9337,0.9338,0.9343,0.9342,0.9341,0.9337,0.9335,0.9339,0.934,0.9341,0.9364,0.9339,0.934,0.9341,0.9387,0.9388,0.9389,0,0,0,0,0,0,0.9333,0.9335,0.9351,0.9342,0.9344,0.9339,0.9345,0.9343,0.9346,0.9342,0.934,0.934,0.9338,0.934,0.9352,0.9364,0.9341,0.9341,0.9386,0.9387,0.9388,0.9411,0,0,0,0,0,0,0.9332,0.9335,0.9344,0.9342,0.9344,0.9363,0.9345,0.9344,0.9347,0.9345,0.9345,0.9344,0.9338,0.9351,0.9353,0.9364,0.9342,0.9385,0.9386,0.9388,0.9409,0.9413,0.9416,0,0,0,0,0,0.9332,0.935,0.9344,0.9346,0.9355,0.9364,0.9365,0.9358,0.9348,0.9356,0.9353,0.9344,0.9362,0.9353,0.9355,0.9366,0.9384,0.9386,0.9388,0.9408,0.9412,0.9416,0,0,0,0,0,0,0.9353,0.935,0.9343,0.9362,0.9363,0.9361,0.9371,0.9363,0.9367,0.9365,0.9356,0.9356,0.937,0.9369,0.9359,0.9385,0.9371,0.9373,0.9386,0.939,0.9393,0.9393,0.9343,0,0,0,0,0,0.936,0.9368,0.9365,0.9381,0.9382,0.9376,0.938,0.9375,0.9376,0.9376,0.9374,0.9375,0.9381,0.9385,0.939,0.9408,0.9407,0.9417,0.942,0.9423,0.9425,0.9434,0.9438,0.9394,0.9394,0.9394,0,0,0.9374,0.9373,0.9379,0.9385,0.9386,0.9394,0.9377,0.9387,0.9393,0.9378,0.939,0.9388,0.9388,0.9404,0.941,0.9403,0.9437,0.9425,0.9427,0.9428,0.9436,0.944,0.9444,0.9395,0.9395,0.9395,0,0,0.9405,0.9405,0.9419,0.9419,0.942,0.9415,0.9419,0.9417,0.9415,0.9427,0.9416,0.9421,0.9432,0.9432,0.9434,0.9462,0.9453,0.9463,0.9481,0.949,0.9493,0.9496,0.9506,0.951,0.9465,0.9465,0.9466,0,0.9423,0.9435,0.9427,0.9437,0.9439,0.9425,0.9438,0.9439,0.9441,0.9443,0.9435,0.9446,0.9446,0.9461,0.9467,0.9469,0.9472,0.9464,0.9493,0.9496,0.9499,0.9508,0.9512,0.9467,0.9467,0.9466,0.9466,0,0.9457,0.9466,0.9476,0.9479,0.9482,0.9494,0.9486,0.949,0.9483,0.948,0.9491,0.9489,0.9493,0.9496,0.9489,0.9509,0.9505,0.9495,0.9481,0.9505,0.9513,0.9517,0.9469,0.9468,0.9468,0.9467,0,0,0.9504,0.95,0.9504,0.9504,0.9503,0.9509,0.9519,0.9522,0.9526,0.9527,0.9535,0.9543,0.9533,0.9535,0.9528,0.9535,0.9557,0.9525,0.9524,0.9531,0.9579,0.9587,0.9591,0.9551,0.9551,0.9552,0.9579,0,0.9534,0.9552,0.9543,0.9562,0.9569,0.9554,0.9563,0.9562,0.9558,0.9563,0.9558,0.9564,0.9551,0.9552,0.9558,0.9553,0.9567,0.9551,0.9558,0.9558,0.956,0.9596,0.9605,0.963,0.9582,0.9583,0.9583,0,0.9573,0.9575,0.9594,0.959,0.9593,0.9601,0.9603,0.9608,0.9606,0.9602,0.9603,0.9594,0.9602,0.9587,0.9598,0.9587,0.9589,0.9587,0.9588,0.9589,0.9573,0.9599,0.9638,0.9643,0.9588,0.9588,0.9587,0,0.9605,0.9613,0.9625,0.9626,0.9621,0.9627,0.9625,0.9623,0.9625,0.9626,0.9627,0.9629,0.963,0.9632,0.9623,0.9613,0.9635,0.9619,0.9632,0.9632,0.9639,0.9639,0.968,0.9638,0.9638,0.9638,0.9638,0,0.9641,0.9653,0.964,0.9648,0.9661,0.9649,0.9662,0.9658,0.9656,0.9662,0.9648,0.9654,0.9642,0.9646,0.9638,0.9648,0.9649,0.9646,0.9644,0.9648,0.9648,0.965,0.9648,0.9639,0.9639,0.9639,0.9638,0,0.968,0.9672,0.9684,0.9678,0.9677,0.9686,0.9681,0.9687,0.9681,0.9689,0.969,0.968,0.9684,0.9675,0.9677,0.9672,0.9687,0.9682,0.9688,0.9687,0.97,0.9699,0.9745,0.975,0.9704,0.9705,0.9705,0,0.9704,0.9714,0.9708,0.9711,0.971,0.9715,0.9717,0.9705,0.9707,0.9705,0.9711,0.9714,0.9716,0.9722,0.9716,0.9717,0.9712,0.9728,0.9713,0.9716,0.9713,0.9713,0.9714,0.9732,0.9732,0.9733,0.9733,0,0.9748,0.9743,0.9746,0.9747,0.975,0.9751,0.975,0.9753,0.974,0.9743,0.9747,0.9749,0.9751,0.9753,0.9753,0.975,0.974,0.9738,0.9741,0.9745,0.9749,0.9748,0.9698,0.9737,0.9737,0.9736,0.9736,0.9736,0.9781,0.9788,0.9784,0.9788,0.9786,0.9786,0.9791,0.9785,0.9788,0.9789,0.9781,0.9786,0.9782,0.9781,0.9779,0.9782,0.9775,0.9779,0.9781,0.9782,0.9785,0.9747,0.9782,0.9782,0.9782,0.9781,0.9781,0,0.9824,0.982,0.9824,0.9823,0.9826,0.9814,0.9813,0.9816,0.982,0.9818,0.9819,0.9823,0.9825,0.9817,0.9818,0.9822,0.9817,0.9823,0.9823,0.9822,0.9791,0.9789,0.9826,0.9826,0.9826,0.9826,0.9826,0.9826,0.9847,0.9858,0.9852,0.9861,0.9857,0.9862,0.9862,0.9861,0.9859,0.9863,0.9865,0.9859,0.9854,0.9854,0.9855,0.9853,0.9854,0.9861,0.9857,0.9829,0.9824,0.982,0.9818,0.9862,0.9862,0.9888,0.9889,0.9889]}]]